Location: Краснодар
(45.0393°N, 38.9872°E)
Time: 19:19:12
(UTC+03:00)

ISS - Visible Passes

Search period start: 19 September 2018 00:00
Search period end: 29 September 2018 00:00
Orbit: 402 x 408 km, 51.6° (Epoch: 20 September)

Date Brightness Start Highest point End Pass type
(mag) Time Alt. Az. Time Alt. Az. Time Alt. Az.
21 Sep -1.6 19:11:15 10° SE 19:12:03 11° SE 19:12:14 11° SE visible
21 Sep -0.9 20:44:44 10° SW 20:44:58 11° SW 20:44:58 11° SW visible
22 Sep -3.3 19:52:58 10° SW 19:55:50 40° SSE 19:55:50 40° SSE visible
23 Sep -2.5 19:01:33 10° SSW 19:04:14 23° SE 19:06:29 12° E visible
23 Sep -2.0 20:37:16 10° WSW 20:39:11 31° W 20:39:11 31° W visible
24 Sep -3.9 19:45:11 10° WSW 19:48:29 89° SSE 19:49:38 38° ENE visible
25 Sep -3.6 18:53:17 10° SW 18:56:29 51° SE 18:59:43 10° ENE visible
25 Sep -2.2 20:30:01 10° W 20:32:36 33° NW 20:32:36 33° NW visible
26 Sep -3.0 19:37:44 10° W 19:40:56 49° NNW 19:42:45 22° NE visible
26 Sep -0.3 21:15:08 10° WNW 21:15:25 12° WNW 21:15:25 12° WNW visible
27 Sep -3.7 18:45:32 10° WSW 18:48:50 76° NNW 18:52:08 10° ENE visible
27 Sep -1.9 20:22:48 10° WNW 20:25:28 27° NNW 20:25:28 27° NNW visible
28 Sep -2.3 19:30:26 10° W 19:33:27 32° NNW 19:35:27 17° NE visible
28 Sep -0.4 21:07:44 10° NW 21:08:06 12° NW 21:08:06 12° NW visible
